Flag for U.S.A. Weather past 2 weeks in Baton Rouge, Louisiana, U.S.A.

Now
71 °F

Clear.


Feels Like: 67 °F
Forecast: 71 / 86 °F
Wind: No wind

Location: Baton Rouge Metropolitan - Ryan Field

Current Time: May 30, 2015 at 6:03:53 AM

Latest Report: May 30, 2015 at 4:53 AM


Visibility: 8 mi

Pressure: 30.02 "Hg

Humidity: 93%

Dew point: 69 °F

Location of Baton RougeLocation

Historic Weather in Baton Rouge — Graph

°F

Baton Rouge temperature yesterday

Maximum temperature yesterday: 88 °F (at 2:53 PM)
Minimum temperature yesterday: 72 °F (at 4:53 AM)
Average temperature yesterday: 78 °F

Past Weeks' High & Low Weather Summary

 TemperatureHumidityPressure
High91 °F (May 28, 4:53 PM)100% (May 27, 11:53 PM)30.22 "Hg (May 27, 11:53 PM)
Low64 °F (May 22, 3:53 AM)47% (May 28, 4:53 PM)29.96 "Hg (May 20, 6:53 PM)
Average76 °F83%30.07 "Hg
* Reported May 15 4:53 AM — May 30 4:53 AM, Baton Rouge, Weather by CustomWeather, © 2015

Note: Actual official high and low records may vary slightly from our data, if they occured in-between our weather recording intervals... More about our weather records

Advertising

Baton Rouge weather history for previous 24 hours

 ConditionsComfort  
Time TempWeatherWind HumidityBarometerVisibility
4:53 AM
Sat, May 30
71 °FClear.No wind93%30.02 "Hg8 mi
3:53 AM71 °FClear.No wind96%30.02 "Hg8 mi
2:53 AM71 °FClear.3 mph96%30.03 "Hg8 mi
1:53 AM72 °FClear.No wind93%30.03 "Hg8 mi
12:53 AM72 °FClear.6 mph93%30.03 "Hg10 mi
11:53 PM
Fri, May 29
73 °FClear.No wind94%30.06 "Hg10 mi
10:53 PM74 °FClear.3 mph91%30.05 "Hg10 mi
9:53 PM75 °FClear.3 mph88%30.04 "Hg10 mi
8:53 PM76 °FSunny.3 mph88%30.02 "Hg10 mi
7:53 PM78 °FSunny.6 mph82%30.01 "Hg10 mi
6:53 PM79 °FSunny.9 mph79%30.01 "Hg10 mi
5:53 PM78 °FPassing clouds.7 mph84%30.01 "Hg10 mi
4:53 PM75 °FPartly sunny.6 mph88%30.03 "Hg10 mi
4:03 PM73 °FHeavy rain. Fog.13 mph90%30.02 "Hg0 mi
3:53 PM77 °FLight rain. Mostly cloudy.29 mph79%30.03 "Hg1 mi
2:53 PM88 °FPartly sunny.10 mph52%30.01 "Hg10 mi
1:53 PM87 °FPartly sunny.12 mph55%30.02 "Hg10 mi
12:53 PM86 °FScattered clouds.9 mph57%30.04 "Hg10 mi
11:53 AM86 °FScattered clouds.5 mph61%30.06 "Hg10 mi
10:53 AM84 °FScattered clouds.7 mph67%30.06 "Hg10 mi
9:55 AM80 °FScattered clouds.8 mph74%30.07 "Hg10 mi
8:53 AM80 °FPartly sunny.9 mph79%30.07 "Hg10 mi
8:00 AM77 °FBroken clouds.5 mph90%30.06 "Hg10 mi
7:00 AM73 °FPartly cloudy.5 mph97%30.05 "Hg7 mi
Weather by CustomWeather, © 2015

See weather overviewHow to use our weather pages